FW5790 Weather Reports


Display with metric or nautical units.
time (UTC)temp
F
wind
direction
speed
MPH
gust
MPH
rain 1hr
in
rain 24hr
in
rain mn
in
humidity
%
barometer
mb
20260831191552 91 0 0.0 2.0 0.00 0.00 0.00 64 1020.1
20260831190114 91 100 0.0 2.0 0.00 0.00 0.00 64 1020.4
20260831184608 91 120 1.0 1.0 0.00 0.00 0.00 64 1020.4
20260831183107 91 89 0.0 3.0 0.00 0.00 0.00 68 1020.6
20260831181555 91 106 1.0 2.0 0.00 0.00 0.00 65 1020.8
20260831180052 91 0 0.0 2.0 0.00 0.00 0.00 66 1021.1
20260831174618 90 105 0.0 2.0 0.00 0.00 0.00 66 1021.0
20260831173053 89 108 0.0 2.0 0.00 0.00 0.00 68 1021.1
20260831171551 88 115 0.0 2.0 0.00 0.00 0.00 70 1021.3
20260831170100 88 0 0.0 1.0 0.00 0.00 0.00 72 1021.3
20260831164558 89 115 1.0 2.0 0.00 0.00 0.00 68 1021.4
20260831163054 89 107 1.0 2.0 0.00 0.00 0.00 70 1021.5
20260831161552 88 103 1.0 2.0 0.00 0.00 0.00 70 1021.4
20260831160100 88 0 1.0 2.0 0.00 0.00 0.00 72 1021.5
20260831154627 87 98 1.0 2.0 0.00 0.00 0.00 72 1021.5
20260831153110 87 99 1.0 2.0 0.00 0.00 0.00 73 1021.5
20260831151552 86 108 1.0 2.0 0.00 0.00 0.00 73 1021.5
20260831150054 85 110 0.0 2.0 0.00 0.00 0.00 74 1021.7
20260831144600 85 122 0.0 2.0 0.00 0.00 0.00 75 1021.7
20260831143052 84 143 0.0 1.0 0.00 0.00 0.00 77 1021.7
20260831141605 83 143 0.0 1.0 0.00 0.00 0.00 78 1021.5
20260831140059 82 0 0.0 1.0 0.00 0.00 0.00 81 1021.5
20260831134610 81 0 0.0 0.0 0.00 0.00 0.00 82 1021.4
20260831133104 80 0 0.0 0.0 0.00 0.00 0.00 84 1021.4
20260831131558 78 237 0.0 1.0 0.00 0.00 0.00 84 1021.3
20260831130100 78 0 0.0 1.0 0.00 0.00 0.00 86 1021.3
20260831124556 75 236 0.0 2.0 0.00 0.00 0.00 88 1021.0
20260831123056 73 0 0.0 0.0 0.00 0.00 0.00 91 1021.1
20260831121603 71 0 0.0 0.0 0.00 0.00 0.00 91 1020.8
20260831120058 71 0 0.0 0.0 0.00 0.00 0.00 91 1020.7
20260831114558 70 0 0.0 0.0 0.00 0.00 0.00 91 1020.7
20260831113105 70 0 0.0 0.0 0.00 0.00 0.00 91 1020.6
20260831111550 70 0 0.0 0.0 0.00 0.00 0.00 91 1020.3
20260831110058 71 0 0.0 0.0 0.00 0.00 0.00 91 1020.3
20260831104559 71 0 0.0 0.0 0.00 0.00 0.00 90 1020.1
20260831103054 71 0 0.0 0.0 0.00 0.00 0.00 90 1020.0
20260831101603 71 0 0.0 0.0 0.00 0.00 0.00 90 1019.8
20260831100054 71 0 0.0 0.0 0.00 0.00 0.00 90 1019.7
20260831094603 72 0 0.0 0.0 0.00 0.00 0.00 90 1019.5
20260831093139 72 0 0.0 0.0 0.00 0.00 0.00 90 1019.4
20260831091601 71 0 0.0 0.0 0.00 0.00 0.00 90 1019.4
20260831090057 71 0 0.0 0.0 0.00 0.00 0.00 90 1019.4
20260831084650 71 0 0.0 0.0 0.00 0.00 0.00 90 1019.2
20260831083100 71 0 0.0 0.0 0.00 0.00 0.00 90 1019.1
20260831081558 71 0 0.0 0.0 0.00 0.00 0.00 90 1019.2
20260831080118 71 0 0.0 0.0 0.00 0.00 0.00 90 1019.2
20260831074555 71 0 0.0 0.0 0.00 0.00 0.00 90 1019.3
20260831073052 71 0 0.0 0.0 0.00 0.00 0.00 90 1019.4
20260831071611 71 0 0.0 0.0 0.00 0.00 0.00 90 1019.3
20260831070114 72 0 0.0 0.0 0.00 0.00 0.00 90 1019.4
20260831064600 72 0 0.0 0.0 0.00 0.00 0.00 89 1019.6
20260831063109 72 0 0.0 0.0 0.00 0.00 0.00 88 1019.6
20260831061553 73 0 0.0 0.0 0.00 0.00 0.00 88 1019.8
20260831060056 73 0 0.0 0.0 0.00 0.00 0.00 87 1019.8
20260831054600 73 0 0.0 0.0 0.00 0.00 0.00 87 1019.7
20260831053102 74 0 0.0 0.0 0.00 0.00 0.00 87 1019.7
20260831051556 74 0 0.0 0.0 0.00 0.00 0.00 86 1019.9
20260831050054 74 0 0.0 0.0 0.00 0.00 0.00 86 1019.7
20260831044558 74 0 0.0 0.0 0.00 0.00 0.00 86 1019.8
20260831043057 75 0 0.0 0.0 0.00 0.00 0.00 85 1019.9
20260831041553 75 0 0.0 0.0 0.00 0.00 0.00 84 1019.9
20260831040053 76 0 0.0 0.0 0.00 0.00 0.00 84 1019.7
20260831034602 76 0 0.0 0.0 0.00 0.00 0.00 84 1019.7
20260831033100 75 0 0.0 0.0 0.00 0.00 0.00 85 1019.6
20260831031551 74 0 0.0 0.0 0.00 0.00 0.00 87 1019.7
20260831030100 75 0 0.0 0.0 0.00 0.00 0.00 87 1019.9
20260831024600 75 0 0.0 0.0 0.00 0.00 0.00 87 1019.8
20260831023057 75 0 0.0 0.0 0.00 0.00 0.00 87 1019.8
20260831021603 76 0 0.0 0.0 0.00 0.00 0.00 86 1019.7
20260831020058 76 0 0.0 0.0 0.00 0.00 0.00 85 1019.6
20260831014553 76 0 0.0 0.0 0.00 0.00 0.00 85 1019.7
20260831013050 76 0 0.0 0.0 0.00 0.00 0.00 84 1019.4
20260831011602 77 0 0.0 0.0 0.00 0.00 0.00 83 1019.3
20260831010106 77 0 0.0 0.0 0.00 0.00 0.00 83 1019.2
20260831004557 78 0 0.0 0.0 0.00 0.00 0.00 85 1019.0
20260831003051 78 0 0.0 0.0 0.00 0.00 0.00 83 1018.9
20260831001600 79 0 0.0 0.0 0.00 0.00 0.00 81 1018.9
20260830234556 81 0 0.0 0.0 0.00 0.00 0.00 80 1018.7
20260830233106 82 0 0.0 0.0 0.00 0.00 0.00 76 1018.7
20260830231553 82 0 0.0 0.0 0.00 0.00 0.00 74 1018.6
20260830230120 83 0 0.0 0.0 0.00 0.00 0.00 72 1018.6
20260830224559 83 0 0.0 0.0 0.00 0.00 0.00 71 1018.5
20260830223051 83 0 0.0 0.0 0.00 0.00 0.00 70 1018.4
20260830221552 84 0 0.0 0.0 0.00 0.00 0.00 73 1018.6
20260830220100 85 0 0.0 0.0 0.00 0.00 0.00 68 1018.8
20260830214553 86 0 0.0 1.0 0.00 0.00 0.00 68 1019.0
20260830213055 85 0 0.0 0.0 0.00 0.00 0.00 71 1019.2
20260830211558 84 0 0.0 0.0 0.00 0.00 0.00 71 1019.3
20260830204553 85 0 0.0 0.0 0.00 0.00 0.00 69 1019.4
20260830203058 85 0 0.0 0.0 0.00 0.00 0.00 67 1019.5
20260830201556 85 0 0.0 0.0 0.00 0.00 0.00 64 1019.7
20260830200055 86 0 0.0 0.0 0.00 0.00 0.00 62 1019.7
20260830194600 87 0 0.0 1.0 0.00 0.00 0.00 58 1019.9
20260830193058 89 155 0.0 1.0 0.00 0.00 0.00 58 1020.0